Time,TemperatureF,DewpointF,PressureIn,WindDirection,WindDirectionDegrees,WindSpeedMPH,WindSpeedGustMPH,Humidity,HourlyPrecipIn,Conditions,Clouds,dailyrainin,SoftwareType,DateUTC
2013-01-21 00:03:00,32.8,29.6,30.17,West,271,0.0,0.0,88,0.00,,---,0.00,VWS V14.01,2013-01-21 08:03:00,
2013-01-21 00:08:00,32.8,29.6,30.17,West,271,0.0,0.0,88,0.00,,---,0.00,VWS V14.01,2013-01-21 08:08:00,
2013-01-21 00:13:00,32.7,29.3,30.17,West,271,0.0,0.0,87,0.00,,---,0.00,VWS V14.01,2013-01-21 08:13:00,
2013-01-21 00:18:00,32.5,29.1,30.16,West,271,0.0,0.0,87,0.00,,---,0.00,VWS V14.01,2013-01-21 08:18:00,
2013-01-21 00:23:00,32.4,29.0,30.16,West,271,0.0,0.0,87,0.00,,---,0.00,VWS V14.01,2013-01-21 08:23:00,
2013-01-21 00:28:00,32.2,28.8,30.16,West,271,0.0,0.0,87,0.00,,---,0.00,VWS V14.01,2013-01-21 08:28:00,
2013-01-21 00:33:00,32.0,28.6,30.16,West,271,0.0,0.0,87,0.00,,---,0.00,VWS V14.01,2013-01-21 08:33:00,
2013-01-21 00:38:00,31.9,28.8,30.16,West,271,0.0,0.0,88,0.00,,---,0.00,VWS V14.01,2013-01-21 08:38:00,
2013-01-21 00:43:00,31.8,28.7,30.16,West,271,0.0,0.0,88,0.00,,---,0.00,VWS V14.01,2013-01-21 08:43:00,
2013-01-21 00:48:00,31.7,28.6,30.16,West,271,0.0,0.0,88,0.00,,---,0.00,VWS V14.01,2013-01-21 08:48:00,
2013-01-21 00:53:00,31.7,28.6,30.16,West,271,0.0,1.0,88,0.00,,---,0.00,VWS V14.01,2013-01-21 08:53:00,
2013-01-21 00:58:00,31.5,28.4,30.16,West,271,0.0,1.0,88,0.00,,---,0.00,VWS V14.01,2013-01-21 08:58:00,
2013-01-21 01:03:00,31.4,28.3,30.16,West,271,0.0,0.0,88,0.00,,---,0.00,VWS V14.01,2013-01-21 09:03:00,
2013-01-21 01:08:00,31.3,28.2,30.16,West,271,0.0,0.0,88,0.00,,---,0.00,VWS V14.01,2013-01-21 09:08:00,
2013-01-21 01:13:00,31.2,28.1,30.16,West,271,0.0,0.0,88,0.00,,---,0.00,VWS V14.01,2013-01-21 09:13:00,
2013-01-21 01:18:00,31.2,28.1,30.16,West,271,0.0,0.0,88,0.00,,---,0.00,VWS V14.01,2013-01-21 09:18:00,
2013-01-21 01:23:00,31.3,28.4,30.16,West,271,0.0,0.0,89,0.00,,---,0.00,VWS V14.01,2013-01-21 09:23:00,
2013-01-21 01:28:00,31.4,28.3,30.16,West,271,0.0,0.0,88,0.00,,---,0.00,VWS V14.01,2013-01-21 09:28:00,
2013-01-21 01:33:00,31.4,28.3,30.16,West,271,0.0,0.0,88,0.00,,---,0.00,VWS V14.01,2013-01-21 09:33:00,
2013-01-21 01:38:00,31.3,28.2,30.16,West,271,0.0,0.0,88,0.00,,---,0.00,VWS V14.01,2013-01-21 09:38:00,
2013-01-21 01:43:00,31.2,28.1,30.16,West,271,0.0,1.0,88,0.00,,---,0.00,VWS V14.01,2013-01-21 09:43:00,
2013-01-21 01:48:00,31.1,28.0,30.16,West,271,0.0,1.0,88,0.00,,---,0.00,VWS V14.01,2013-01-21 09:48:00,
2013-01-21 01:53:00,31.0,27.9,30.16,West,271,0.0,0.0,88,0.00,,---,0.00,VWS V14.01,2013-01-21 09:53:00,
2013-01-21 01:58:00,30.9,27.8,30.16,West,271,0.0,0.0,88,0.00,,---,0.00,VWS V14.01,2013-01-21 09:58:00,
2013-01-21 02:03:00,30.7,27.6,30.16,West,271,0.0,0.0,88,0.00,,---,0.00,VWS V14.01,2013-01-21 10:03:00,
2013-01-21 02:08:00,30.6,27.5,30.16,West,271,0.0,0.0,88,0.00,,---,0.00,VWS V14.01,2013-01-21 10:08:00,
2013-01-21 02:13:00,30.4,27.3,30.16,West,271,0.0,0.0,88,0.00,,---,0.00,VWS V14.01,2013-01-21 10:13:00,
2013-01-21 02:18:00,30.2,27.1,30.16,West,271,0.0,0.0,88,0.00,,---,0.00,VWS V14.01,2013-01-21 10:18:00,
2013-01-21 02:23:00,30.1,27.0,30.16,West,271,0.0,0.0,88,0.00,,---,0.00,VWS V14.01,2013-01-21 10:23:00,
2013-01-21 02:28:00,30.0,26.9,30.16,West,271,0.0,0.0,88,0.00,,---,0.00,VWS V14.01,2013-01-21 10:28:00,
2013-01-21 02:33:00,29.8,26.7,30.16,West,271,0.0,0.0,88,0.00,,---,0.00,VWS V14.01,2013-01-21 10:33:00,
2013-01-21 02:38:00,29.6,26.5,30.16,West,271,0.0,0.0,88,0.00,,---,0.00,VWS V14.01,2013-01-21 10:38:00,
2013-01-21 02:43:00,29.5,26.7,30.16,West,271,0.0,0.0,89,0.00,,---,0.00,VWS V14.01,2013-01-21 10:43:00,
2013-01-21 02:48:00,29.5,26.7,30.15,West,271,0.0,0.0,89,0.00,,---,0.00,VWS V14.01,2013-01-21 10:48:00,
2013-01-21 02:53:00,29.6,26.8,30.15,West,271,0.0,0.0,89,0.00,,---,0.00,VWS V14.01,2013-01-21 10:53:00,
2013-01-21 02:58:00,29.4,26.6,30.15,West,271,0.0,0.0,89,0.00,,---,0.00,VWS V14.01,2013-01-21 10:58:00,
2013-01-21 03:03:00,29.3,26.5,30.15,West,271,0.0,0.0,89,0.00,,---,0.00,VWS V14.01,2013-01-21 11:03:00,
2013-01-21 03:08:00,29.2,26.4,30.15,West,271,0.0,0.0,89,0.00,,---,0.00,VWS V14.01,2013-01-21 11:08:00,
2013-01-21 03:13:00,29.1,26.3,30.15,West,271,0.0,0.0,89,0.00,,---,0.00,VWS V14.01,2013-01-21 11:13:00,
2013-01-21 03:18:00,29.0,26.2,30.15,West,271,0.0,0.0,89,0.00,,---,0.00,VWS V14.01,2013-01-21 11:18:00,
2013-01-21 03:23:00,29.1,26.5,30.15,West,271,0.0,0.0,90,0.00,,---,0.00,VWS V14.01,2013-01-21 11:23:00,
2013-01-21 03:28:00,29.1,26.5,30.15,West,271,0.0,0.0,90,0.00,,---,0.00,VWS V14.01,2013-01-21 11:28:00,
2013-01-21 03:33:00,29.1,26.5,30.15,West,271,0.0,0.0,90,0.00,,---,0.00,VWS V14.01,2013-01-21 11:33:00,
2013-01-21 03:38:00,28.9,26.1,30.14,West,271,0.0,0.0,89,0.00,,---,0.00,VWS V14.01,2013-01-21 11:38:00,
2013-01-21 03:43:00,28.8,26.0,30.14,West,271,0.0,0.0,89,0.00,,---,0.00,VWS V14.01,2013-01-21 11:43:00,
2013-01-21 03:48:00,28.7,25.9,30.14,West,271,0.0,0.0,89,0.00,,---,0.00,VWS V14.01,2013-01-21 11:48:00,
2013-01-21 03:53:00,28.5,25.7,30.14,West,271,0.0,0.0,89,0.00,,---,0.00,VWS V14.01,2013-01-21 11:53:00,
2013-01-21 03:58:00,28.4,25.6,30.14,West,271,0.0,0.0,89,0.00,,---,0.00,VWS V14.01,2013-01-21 11:58:00,
2013-01-21 04:03:00,28.3,25.8,30.14,West,271,0.0,0.0,90,0.00,,---,0.00,VWS V14.01,2013-01-21 12:03:00,
2013-01-21 04:08:00,28.3,25.5,30.14,West,271,0.0,0.0,89,0.00,,---,0.00,VWS V14.01,2013-01-21 12:08:00,
2013-01-21 04:13:00,28.1,25.3,30.14,West,271,0.0,0.0,89,0.00,,---,0.00,VWS V14.01,2013-01-21 12:13:00,
2013-01-21 04:18:00,28.0,25.2,30.14,West,271,0.0,0.0,89,0.00,,---,0.00,VWS V14.01,2013-01-21 12:18:00,
2013-01-21 04:23:00,27.9,25.1,30.14,West,271,0.0,0.0,89,0.00,,---,0.00,VWS V14.01,2013-01-21 12:23:00,
2013-01-21 04:28:00,27.8,25.2,30.14,West,271,0.0,0.0,90,0.00,,---,0.00,VWS V14.01,2013-01-21 12:28:00,
2013-01-21 04:33:00,27.8,25.2,30.14,West,271,0.0,0.0,90,0.00,,---,0.00,VWS V14.01,2013-01-21 12:33:00,
2013-01-21 04:38:00,27.6,25.1,30.14,West,271,0.0,0.0,90,0.00,,---,0.00,VWS V14.01,2013-01-21 12:38:00,
2013-01-21 04:43:00,27.5,25.0,30.14,West,271,0.0,0.0,90,0.00,,---,0.00,VWS V14.01,2013-01-21 12:43:00,
2013-01-21 04:48:00,27.4,24.9,30.14,West,271,0.0,0.0,90,0.00,,---,0.00,VWS V14.01,2013-01-21 12:48:00,
2013-01-21 04:53:00,27.3,24.8,30.14,West,271,0.0,0.0,90,0.00,,---,0.00,VWS V14.01,2013-01-21 12:53:00,
2013-01-21 04:58:00,27.2,24.7,30.14,West,271,0.0,0.0,90,0.00,,---,0.00,VWS V14.01,2013-01-21 12:58:00,
2013-01-21 05:03:00,27.2,24.7,30.14,West,271,0.0,0.0,90,0.00,,---,0.00,VWS V14.01,2013-01-21 13:03:00,
2013-01-21 05:08:00,27.2,24.7,30.14,West,271,0.0,0.0,90,0.00,,---,0.00,VWS V14.01,2013-01-21 13:08:00,
2013-01-21 05:13:00,27.2,24.7,30.14,West,271,0.0,0.0,90,0.00,,---,0.00,VWS V14.01,2013-01-21 13:13:00,
2013-01-21 05:18:00,27.1,24.6,30.14,West,271,0.0,0.0,90,0.00,,---,0.00,VWS V14.01,2013-01-21 13:18:00,
2013-01-21 05:23:00,27.1,24.6,30.13,West,271,0.0,0.0,90,0.00,,---,0.00,VWS V14.01,2013-01-21 13:23:00,
2013-01-21 05:28:00,27.0,24.5,30.13,West,271,0.0,0.0,90,0.00,,---,0.00,VWS V14.01,2013-01-21 13:28:00,
2013-01-21 05:33:00,27.0,24.5,30.13,West,271,0.0,0.0,90,0.00,,---,0.00,VWS V14.01,2013-01-21 13:33:00,
2013-01-21 05:38:00,27.0,24.7,30.13,West,271,0.0,0.0,91,0.00,,---,0.00,VWS V14.01,2013-01-21 13:38:00,
2013-01-21 05:43:00,27.1,24.8,30.13,West,271,0.0,0.0,91,0.00,,---,0.00,VWS V14.01,2013-01-21 13:43:00,
2013-01-21 05:48:00,27.2,24.9,30.13,West,271,0.0,0.0,91,0.00,,---,0.00,VWS V14.01,2013-01-21 13:48:00,
2013-01-21 05:53:00,27.4,25.1,30.13,West,271,0.0,0.0,91,0.00,,---,0.00,VWS V14.01,2013-01-21 13:53:00,
2013-01-21 05:58:00,27.2,24.9,30.13,West,271,0.0,0.0,91,0.00,,---,0.00,VWS V14.01,2013-01-21 13:58:00,
2013-01-21 06:03:00,27.3,25.0,30.13,West,271,0.0,0.0,91,0.00,,---,0.00,VWS V14.01,2013-01-21 14:03:00,
2013-01-21 06:08:00,27.3,25.0,30.13,West,271,0.0,0.0,91,0.00,,---,0.00,VWS V14.01,2013-01-21 14:08:00,
2013-01-21 06:13:00,27.4,25.1,30.13,West,271,0.0,0.0,91,0.00,,---,0.00,VWS V14.01,2013-01-21 14:13:00,
2013-01-21 06:18:00,27.4,25.1,30.13,West,271,0.0,1.0,91,0.00,,---,0.00,VWS V14.01,2013-01-21 14:18:00,
2013-01-21 06:23:00,27.4,25.1,30.13,West,271,0.0,0.0,91,0.00,,---,0.00,VWS V14.01,2013-01-21 14:23:00,
2013-01-21 06:28:00,27.4,25.1,30.13,West,271,0.0,0.0,91,0.00,,---,0.00,VWS V14.01,2013-01-21 14:28:00,
2013-01-21 06:33:00,27.4,25.1,30.14,West,271,0.0,0.0,91,0.00,,---,0.00,VWS V14.01,2013-01-21 14:33:00,
2013-01-21 06:38:00,27.2,24.9,30.14,West,271,0.0,0.0,91,0.00,,---,0.00,VWS V14.01,2013-01-21 14:38:00,
2013-01-21 06:43:00,27.2,24.9,30.13,West,271,0.0,0.0,91,0.00,,---,0.00,VWS V14.01,2013-01-21 14:43:00,
2013-01-21 06:48:00,27.0,24.7,30.13,West,271,0.0,0.0,91,0.00,,---,0.00,VWS V14.01,2013-01-21 14:48:00,
2013-01-21 06:53:00,27.0,24.7,30.14,West,271,0.0,0.0,91,0.00,,---,0.00,VWS V14.01,2013-01-21 14:53:00,
2013-01-21 06:58:00,27.0,24.7,30.14,West,271,0.0,0.0,91,0.00,,---,0.00,VWS V14.01,2013-01-21 14:58:00,
2013-01-21 07:03:00,27.1,24.8,30.14,West,271,0.0,0.0,91,0.00,,---,0.00,VWS V14.01,2013-01-21 15:03:00,
2013-01-21 07:08:00,27.1,24.8,30.14,West,271,0.0,0.0,91,0.00,,---,0.00,VWS V14.01,2013-01-21 15:08:00,
2013-01-21 07:13:00,27.0,24.7,30.15,West,271,0.0,0.0,91,0.00,,---,0.00,VWS V14.01,2013-01-21 15:13:00,
2013-01-21 07:18:00,27.0,24.7,30.15,West,271,0.0,0.0,91,0.00,,---,0.00,VWS V14.01,2013-01-21 15:18:00,
2013-01-21 07:23:00,27.0,24.7,30.15,West,271,0.0,0.0,91,0.00,,---,0.00,VWS V14.01,2013-01-21 15:23:00,
2013-01-21 07:28:00,26.9,24.6,30.15,West,271,0.0,0.0,91,0.00,,---,0.00,VWS V14.01,2013-01-21 15:28:00,
2013-01-21 07:33:00,26.9,24.6,30.15,West,271,0.0,0.0,91,0.00,,---,0.00,VWS V14.01,2013-01-21 15:33:00,
2013-01-21 07:38:00,27.0,24.7,30.15,West,271,0.0,0.0,91,0.00,,---,0.00,VWS V14.01,2013-01-21 15:38:00,
2013-01-21 07:43:00,27.0,25.0,30.15,West,271,0.0,0.0,92,0.00,,---,0.00,VWS V14.01,2013-01-21 15:43:00,
2013-01-21 07:48:00,27.3,25.3,30.16,West,271,0.0,0.0,92,0.00,,---,0.00,VWS V14.01,2013-01-21 15:48:00,
2013-01-21 07:53:00,27.8,25.8,30.16,West,271,0.0,0.0,92,0.00,,---,0.00,VWS V14.01,2013-01-21 15:53:00,
2013-01-21 07:58:00,28.3,26.3,30.16,West,271,0.0,0.0,92,0.00,,---,0.00,VWS V14.01,2013-01-21 15:58:00,
2013-01-21 08:03:00,28.8,27.0,30.16,West,271,0.0,0.0,93,0.00,,---,0.00,VWS V14.01,2013-01-21 16:03:00,
2013-01-21 08:08:00,29.6,27.8,30.16,West,271,0.0,0.0,93,0.00,,---,0.00,VWS V14.01,2013-01-21 16:08:00,
2013-01-21 08:13:00,30.3,28.5,30.16,West,271,0.0,0.0,93,0.00,,---,0.00,VWS V14.01,2013-01-21 16:13:00,
2013-01-21 08:18:00,31.0,29.2,30.16,West,271,0.0,0.0,93,0.00,,---,0.00,VWS V14.01,2013-01-21 16:18:00,
2013-01-21 08:23:00,31.7,29.9,30.17,West,271,0.0,0.0,93,0.00,,---,0.00,VWS V14.01,2013-01-21 16:23:00,
2013-01-21 08:28:00,32.4,30.6,30.17,West,271,0.0,0.0,93,0.00,,---,0.00,VWS V14.01,2013-01-21 16:28:00,
2013-01-21 08:33:00,33.2,31.4,30.17,West,271,0.0,0.0,93,0.00,,---,0.00,VWS V14.01,2013-01-21 16:33:00,
2013-01-21 08:38:00,33.6,31.5,30.17,West,271,0.0,0.0,92,0.00,,---,0.00,VWS V14.01,2013-01-21 16:38:00,
2013-01-21 08:43:00,33.9,31.6,30.17,West,271,0.0,0.0,91,0.00,,---,0.00,VWS V14.01,2013-01-21 16:43:00,
2013-01-21 08:48:00,34.4,31.8,30.17,West,271,0.0,0.0,90,0.00,,---,0.00,VWS V14.01,2013-01-21 16:48:00,
2013-01-21 08:53:00,35.0,32.1,30.17,West,271,0.0,0.0,89,0.00,,---,0.00,VWS V14.01,2013-01-21 16:53:00,
2013-01-21 08:58:00,36.0,32.8,30.17,West,271,0.0,0.0,88,0.00,,---,0.00,VWS V14.01,2013-01-21 16:58:00,
2013-01-21 09:03:00,36.9,33.1,30.17,West,271,0.0,0.0,86,0.00,,---,0.00,VWS V14.01,2013-01-21 17:03:00,
2013-01-21 09:08:00,37.9,33.8,30.17,West,271,0.0,0.0,85,0.00,,---,0.00,VWS V14.01,2013-01-21 17:08:00,
2013-01-21 09:13:00,39.0,34.3,30.18,West,271,0.0,0.0,83,0.00,,---,0.00,VWS V14.01,2013-01-21 17:13:00,
2013-01-21 09:18:00,39.9,34.9,30.17,West,271,0.0,0.0,82,0.00,,---,0.00,VWS V14.01,2013-01-21 17:18:00,
2013-01-21 09:23:00,40.8,35.4,30.18,West,271,0.0,0.0,81,0.00,,---,0.00,VWS V14.01,2013-01-21 17:23:00,
2013-01-21 09:28:00,41.8,36.1,30.18,West,271,0.0,0.0,80,0.00,,---,0.00,VWS V14.01,2013-01-21 17:28:00,
2013-01-21 09:33:00,42.7,36.3,30.18,West,271,0.0,0.0,78,0.00,,---,0.00,VWS V14.01,2013-01-21 17:33:00,
2013-01-21 09:38:00,43.5,36.5,30.18,West,271,0.0,0.0,76,0.00,,---,0.00,VWS V14.01,2013-01-21 17:38:00,
2013-01-21 09:43:00,44.4,37.0,30.18,West,271,0.0,0.0,75,0.00,,---,0.00,VWS V14.01,2013-01-21 17:43:00,
2013-01-21 09:48:00,45.2,37.1,30.18,West,271,0.0,0.0,73,0.00,,---,0.00,VWS V14.01,2013-01-21 17:48:00,
2013-01-21 09:53:00,46.1,37.2,30.18,West,271,0.0,0.0,71,0.00,,---,0.00,VWS V14.01,2013-01-21 17:53:00,
2013-01-21 09:57:00,46.9,37.6,30.18,West,271,2.0,2.0,70,0.00,,---,0.00,VWS V14.01,2013-01-21 17:57:00,
2013-01-21 10:02:00,46.8,36.8,30.18,West,271,1.0,1.0,68,0.00,,---,0.00,VWS V14.01,2013-01-21 18:02:00,
2013-01-21 10:07:00,46.9,37.3,30.18,West,271,1.0,1.0,69,0.00,,---,0.00,VWS V14.01,2013-01-21 18:07:00,
2013-01-21 10:12:00,47.2,37.6,30.19,NNE,24,0.0,1.0,69,0.00,,---,0.00,VWS V14.01,2013-01-21 18:12:00,
2013-01-21 10:18:00,47.9,37.5,30.19,NNE,26,0.0,2.0,67,0.00,,---,0.00,VWS V14.01,2013-01-21 18:18:00,
2013-01-21 10:22:00,48.4,38.0,30.19,NNE,25,0.0,0.0,67,0.00,,---,0.00,VWS V14.01,2013-01-21 18:22:00,
2013-01-21 10:27:00,48.8,38.0,30.19,NNE,25,1.0,1.0,66,0.00,,---,0.00,VWS V14.01,2013-01-21 18:27:00,
2013-01-21 10:32:00,49.5,38.2,30.19,NNE,25,0.0,3.0,65,0.00,,---,0.00,VWS V14.01,2013-01-21 18:32:00,
2013-01-21 10:37:00,50.1,38.4,30.19,North,350,0.0,3.0,64,0.00,,---,0.00,VWS V14.01,2013-01-21 18:37:00,
2013-01-21 10:42:00,50.4,38.7,30.19,North,355,0.0,1.0,64,0.00,,---,0.00,VWS V14.01,2013-01-21 18:42:00,
2013-01-21 10:47:00,50.9,39.2,30.19,NNW,346,1.0,1.0,64,0.00,,---,0.00,VWS V14.01,2013-01-21 18:47:00,
2013-01-21 10:52:00,51.4,39.2,30.19,West,275,0.0,2.0,63,0.00,,---,0.00,VWS V14.01,2013-01-21 18:52:00,
2013-01-21 10:57:00,51.8,38.8,30.18,West,275,0.0,2.0,61,0.00,,---,0.00,VWS V14.01,2013-01-21 18:57:00,
2013-01-21 11:02:00,52.3,39.7,30.18,North,350,0.0,0.0,62,0.00,,---,0.00,VWS V14.01,2013-01-21 19:02:00,
2013-01-21 11:07:00,53.1,39.6,30.18,West,263,0.0,3.0,60,0.00,,---,0.00,VWS V14.01,2013-01-21 19:07:00,
2013-01-21 11:12:00,53.5,39.5,30.17,NNW,336,0.0,3.0,59,0.00,,---,0.00,VWS V14.01,2013-01-21 19:12:00,
2013-01-21 11:17:00,54.2,39.8,30.17,WSW,246,1.0,4.0,58,0.00,,---,0.00,VWS V14.01,2013-01-21 19:17:00,
2013-01-21 11:22:00,54.5,39.6,30.17,West,263,0.0,2.0,57,0.00,,---,0.00,VWS V14.01,2013-01-21 19:22:00,
2013-01-21 11:27:00,54.5,39.6,30.17,NW,307,0.0,4.0,57,0.00,,---,0.00,VWS V14.01,2013-01-21 19:27:00,
2013-01-21 11:32:00,55.1,40.2,30.17,NW,316,0.0,1.0,57,0.00,,---,0.00,VWS V14.01,2013-01-21 19:32:00,
2013-01-21 11:37:00,55.3,39.9,30.17,West,261,2.0,4.0,56,0.00,,---,0.00,VWS V14.01,2013-01-21 19:37:00,
2013-01-21 11:42:00,55.4,40.0,30.16,NNW,327,1.0,1.0,56,0.00,,---,0.00,VWS V14.01,2013-01-21 19:42:00,
2013-01-21 11:47:00,55.8,38.9,30.16,WNW,293,0.0,5.0,53,0.00,,---,0.00,VWS V14.01,2013-01-21 19:47:00,
2013-01-21 11:52:00,56.0,38.6,30.16,NNW,338,0.0,2.0,52,0.00,,---,0.00,VWS V14.01,2013-01-21 19:52:00,
2013-01-21 11:57:00,56.4,40.0,30.16,NW,326,0.0,3.0,54,0.00,,---,0.00,VWS V14.01,2013-01-21 19:57:00,
2013-01-21 12:02:00,56.9,40.0,30.15,NW,320,4.0,4.0,53,0.00,,---,0.00,VWS V14.01,2013-01-21 20:02:00,
2013-01-21 12:07:00,57.2,39.8,30.15,WSW,254,3.0,7.0,52,0.00,,---,0.00,VWS V14.01,2013-01-21 20:07:00,
2013-01-21 12:12:00,57.1,39.7,30.15,WSW,258,1.0,2.0,52,0.00,,---,0.00,VWS V14.01,2013-01-21 20:12:00,
2013-01-21 12:17:00,57.2,39.8,30.15,WSW,247,4.0,5.0,52,0.00,,---,0.00,VWS V14.01,2013-01-21 20:17:00,
2013-01-21 12:22:00,57.1,39.7,30.15,West,264,5.0,5.0,52,0.00,,---,0.00,VWS V14.01,2013-01-21 20:22:00,
2013-01-21 12:27:00,57.3,39.8,30.14,WNW,297,4.0,6.0,52,0.00,,---,0.00,VWS V14.01,2013-01-21 20:27:00,
2013-01-21 12:32:00,57.7,40.2,30.14,West,266,0.0,1.0,52,0.00,,---,0.00,VWS V14.01,2013-01-21 20:32:00,
2013-01-21 12:37:00,58.1,40.1,30.14,WNW,301,0.0,5.0,51,0.00,,---,0.00,VWS V14.01,2013-01-21 20:37:00,
2013-01-21 12:42:00,58.5,40.5,30.14,NW,323,0.0,3.0,51,0.00,,---,0.00,VWS V14.01,2013-01-21 20:42:00,
2013-01-21 12:47:00,58.9,39.8,30.13,West,269,4.0,6.0,49,0.00,,---,0.00,VWS V14.01,2013-01-21 20:47:00,
2013-01-21 12:52:00,59.0,39.9,30.13,WSW,255,4.0,5.0,49,0.00,,---,0.00,VWS V14.01,2013-01-21 20:52:00,
2013-01-21 12:57:00,59.0,39.9,30.13,WNW,293,0.0,5.0,49,0.00,,---,0.00,VWS V14.01,2013-01-21 20:57:00,
2013-01-21 13:02:00,59.1,39.5,30.13,West,270,0.0,2.0,48,0.00,,---,0.00,VWS V14.01,2013-01-21 21:02:00,
2013-01-21 13:07:00,59.4,39.7,30.13,NE,39,0.0,2.0,48,0.00,,---,0.00,VWS V14.01,2013-01-21 21:07:00,
2013-01-21 13:13:00,59.8,39.5,30.13,NW,306,0.0,6.0,47,0.00,,---,0.00,VWS V14.01,2013-01-21 21:13:00,
2013-01-21 13:18:00,60.0,39.7,30.13,WSW,243,2.0,6.0,47,0.00,,---,0.00,VWS V14.01,2013-01-21 21:18:00,
2013-01-21 13:23:00,60.2,39.4,30.13,SW,236,0.0,1.0,46,0.00,,---,0.00,VWS V14.01,2013-01-21 21:23:00,
2013-01-21 13:28:00,60.4,39.5,30.13,West,268,1.0,7.0,46,0.00,,---,0.00,VWS V14.01,2013-01-21 21:28:00,
2013-01-21 13:33:00,60.8,39.3,30.13,West,279,2.0,3.0,45,0.00,,---,0.00,VWS V14.01,2013-01-21 21:33:00,
2013-01-21 13:37:00,60.9,39.4,30.12,West,275,2.0,5.0,45,0.00,,---,0.00,VWS V14.01,2013-01-21 21:37:00,
2013-01-21 13:42:00,61.1,39.6,30.12,NW,306,4.0,4.0,45,0.00,,---,0.00,VWS V14.01,2013-01-21 21:42:00,
2013-01-21 13:48:00,61.2,39.7,30.12,WNW,299,2.0,9.0,45,0.00,,---,0.00,VWS V14.01,2013-01-21 21:48:00,
2013-01-21 13:53:00,61.3,39.8,30.12,West,265,2.0,5.0,45,0.00,,---,0.00,VWS V14.01,2013-01-21 21:53:00,
2013-01-21 13:57:00,61.4,39.9,30.11,NW,325,2.0,5.0,45,0.00,,---,0.00,VWS V14.01,2013-01-21 21:57:00,
2013-01-21 14:02:00,61.6,40.1,30.11,SW,222,0.0,1.0,45,0.00,,---,0.00,VWS V14.01,2013-01-21 22:02:00,
2013-01-21 14:07:00,61.6,40.1,30.11,West,272,2.0,3.0,45,0.00,,---,0.00,VWS V14.01,2013-01-21 22:07:00,
2013-01-21 14:12:00,61.6,40.1,30.11,NNW,334,2.0,4.0,45,0.00,,---,0.00,VWS V14.01,2013-01-21 22:12:00,
2013-01-21 14:17:00,61.6,40.1,30.11,WSW,238,1.0,4.0,45,0.00,,---,0.00,VWS V14.01,2013-01-21 22:17:00,
2013-01-21 14:22:00,61.8,40.3,30.11,West,268,3.0,5.0,45,0.00,,---,0.00,VWS V14.01,2013-01-21 22:22:00,
2013-01-21 14:27:00,61.8,40.3,30.11,West,259,2.0,5.0,45,0.00,,---,0.00,VWS V14.01,2013-01-21 22:27:00,
2013-01-21 14:32:00,61.8,40.3,30.11,WNW,286,0.0,5.0,45,0.00,,---,0.00,VWS V14.01,2013-01-21 22:32:00,
2013-01-21 14:37:00,61.8,40.3,30.11,WSW,252,1.0,5.0,45,0.00,,---,0.00,VWS V14.01,2013-01-21 22:37:00,
2013-01-21 14:42:00,61.8,40.3,30.11,West,281,2.0,2.0,45,0.00,,---,0.00,VWS V14.01,2013-01-21 22:42:00,
2013-01-21 14:47:00,61.8,40.3,30.11,West,272,0.0,3.0,45,0.00,,---,0.00,VWS V14.01,2013-01-21 22:47:00,
2013-01-21 14:52:00,61.7,40.2,30.11,SSW,213,0.0,2.0,45,0.00,,---,0.00,VWS V14.01,2013-01-21 22:52:00,
2013-01-21 14:57:00,61.6,40.1,30.11,WSW,247,0.0,2.0,45,0.00,,---,0.00,VWS V14.01,2013-01-21 22:57:00,
2013-01-21 15:02:00,61.6,40.6,30.11,WNW,296,0.0,1.0,46,0.00,,---,0.00,VWS V14.01,2013-01-21 23:02:00,
2013-01-21 15:07:00,61.5,40.5,30.11,WSW,246,0.0,3.0,46,0.00,,---,0.00,VWS V14.01,2013-01-21 23:07:00,
2013-01-21 15:12:00,61.5,41.1,30.11,West,280,0.0,1.0,47,0.00,,---,0.00,VWS V14.01,2013-01-21 23:12:00,
2013-01-21 15:17:00,61.4,41.0,30.11,SW,233,0.0,4.0,47,0.00,,---,0.00,VWS V14.01,2013-01-21 23:17:00,
2013-01-21 15:22:00,61.4,41.0,30.11,West,266,1.0,5.0,47,0.00,,---,0.00,VWS V14.01,2013-01-21 23:22:00,
2013-01-21 15:27:00,61.3,40.9,30.11,WSW,258,0.0,5.0,47,0.00,,---,0.00,VWS V14.01,2013-01-21 23:27:00,
2013-01-21 15:32:00,61.1,40.7,30.11,SSW,211,0.0,1.0,47,0.00,,---,0.00,VWS V14.01,2013-01-21 23:32:00,
2013-01-21 15:37:00,60.9,41.1,30.10,West,277,0.0,3.0,48,0.00,,---,0.00,VWS V14.01,2013-01-21 23:37:00,
2013-01-21 15:42:00,60.8,41.0,30.10,West,269,0.0,2.0,48,0.00,,---,0.00,VWS V14.01,2013-01-21 23:42:00,
2013-01-21 15:47:00,60.5,40.7,30.10,West,261,0.0,4.0,48,0.00,,---,0.00,VWS V14.01,2013-01-21 23:47:00,
2013-01-21 15:52:00,60.3,41.1,30.10,West,265,1.0,1.0,49,0.00,,---,0.00,VWS V14.01,2013-01-21 23:52:00,
2013-01-21 15:57:00,59.8,41.1,30.10,West,274,0.0,2.0,50,0.00,,---,0.00,VWS V14.01,2013-01-21 23:57:00,
2013-01-21 16:02:00,59.2,42.1,30.10,West,274,1.0,1.0,53,0.00,,---,0.00,VWS V14.01,2013-01-22 00:02:00,
2013-01-21 16:07:00,58.5,42.4,30.10,West,265,0.0,1.0,55,0.00,,---,0.00,VWS V14.01,2013-01-22 00:07:00,
2013-01-21 16:12:00,57.4,41.8,30.10,West,265,0.0,0.0,56,0.00,,---,0.00,VWS V14.01,2013-01-22 00:12:00,
2013-01-21 16:17:00,56.5,41.5,30.10,West,265,0.0,0.0,57,0.00,,---,0.00,VWS V14.01,2013-01-22 00:17:00,
2013-01-21 16:22:00,55.6,41.5,30.10,West,265,0.0,0.0,59,0.00,,---,0.00,VWS V14.01,2013-01-22 00:22:00,
2013-01-21 16:27:00,54.8,41.6,30.10,West,265,0.0,0.0,61,0.00,,---,0.00,VWS V14.01,2013-01-22 00:27:00,
2013-01-21 16:32:00,54.1,41.4,30.09,West,265,0.0,0.0,62,0.00,,---,0.00,VWS V14.01,2013-01-22 00:32:00,
2013-01-21 16:37:00,53.5,41.2,30.09,West,265,0.0,0.0,63,0.00,,---,0.00,VWS V14.01,2013-01-22 00:37:00,
2013-01-21 16:42:00,52.9,41.1,30.09,West,265,0.0,0.0,64,0.00,,---,0.00,VWS V14.01,2013-01-22 00:42:00,
2013-01-21 16:47:00,52.5,41.1,30.10,West,265,0.0,0.0,65,0.00,,---,0.00,VWS V14.01,2013-01-22 00:47:00,
2013-01-21 16:52:00,52.1,41.1,30.09,West,265,0.0,0.0,66,0.00,,---,0.00,VWS V14.01,2013-01-22 00:52:00,
2013-01-21 16:57:00,51.7,41.1,30.09,West,265,0.0,0.0,67,0.00,,---,0.00,VWS V14.01,2013-01-22 00:57:00,
2013-01-21 17:02:00,51.2,41.0,30.09,West,265,0.0,0.0,68,0.00,,---,0.00,VWS V14.01,2013-01-22 01:02:00,
2013-01-21 17:07:00,50.8,41.0,30.09,West,265,0.0,0.0,69,0.00,,---,0.00,VWS V14.01,2013-01-22 01:07:00,
2013-01-21 17:12:00,50.3,40.9,30.09,SSE,163,0.0,0.0,70,0.00,,---,0.00,VWS V14.01,2013-01-22 01:12:00,
2013-01-21 17:17:00,49.8,40.8,30.10,SSE,163,0.0,0.0,71,0.00,,---,0.00,VWS V14.01,2013-01-22 01:17:00,
2013-01-21 17:22:00,49.3,40.7,30.10,SSE,163,0.0,0.0,72,0.00,,---,0.00,VWS V14.01,2013-01-22 01:22:00,
2013-01-21 17:27:00,48.9,40.3,30.10,SSE,163,0.0,0.0,72,0.00,,---,0.00,VWS V14.01,2013-01-22 01:27:00,
2013-01-21 17:32:00,48.6,40.3,30.10,SSE,163,0.0,0.0,73,0.00,,---,0.00,VWS V14.01,2013-01-22 01:32:00,
2013-01-21 17:37:00,48.3,40.1,30.10,SSE,163,0.0,0.0,73,0.00,,---,0.00,VWS V14.01,2013-01-22 01:37:00,
2013-01-21 17:42:00,47.9,40.0,30.10,SSE,163,0.0,0.0,74,0.00,,---,0.00,VWS V14.01,2013-01-22 01:42:00,
2013-01-21 17:47:00,47.6,39.7,30.10,SSE,163,0.0,0.0,74,0.00,,---,0.00,VWS V14.01,2013-01-22 01:47:00,
2013-01-21 17:52:00,47.3,39.8,30.10,SSE,163,0.0,0.0,75,0.00,,---,0.00,VWS V14.01,2013-01-22 01:52:00,
2013-01-21 17:57:00,47.0,39.5,30.10,SSE,163,0.0,0.0,75,0.00,,---,0.00,VWS V14.01,2013-01-22 01:57:00,
2013-01-21 18:02:00,46.8,39.7,30.10,SSE,163,0.0,0.0,76,0.00,,---,0.00,VWS V14.01,2013-01-22 02:02:00,
2013-01-21 18:07:00,46.5,39.4,30.10,SSE,163,0.0,0.0,76,0.00,,---,0.00,VWS V14.01,2013-01-22 02:07:00,
2013-01-21 18:12:00,46.2,39.4,30.10,SSE,163,0.0,0.0,77,0.00,,---,0.00,VWS V14.01,2013-01-22 02:12:00,
2013-01-21 18:17:00,45.9,39.1,30.10,SSE,163,0.0,0.0,77,0.00,,---,0.00,VWS V14.01,2013-01-22 02:17:00,
2013-01-21 18:22:00,45.6,39.2,30.10,SSE,163,0.0,0.0,78,0.00,,---,0.00,VWS V14.01,2013-01-22 02:22:00,
2013-01-21 18:27:00,45.3,38.9,30.10,SSE,163,0.0,0.0,78,0.00,,---,0.00,VWS V14.01,2013-01-22 02:27:00,
2013-01-21 18:32:00,45.0,38.2,30.10,SSE,163,0.0,0.0,77,0.00,,---,0.00,VWS V14.01,2013-01-22 02:32:00,
2013-01-21 18:37:00,44.8,38.0,30.10,SSE,163,0.0,0.0,77,0.00,,---,0.00,VWS V14.01,2013-01-22 02:37:00,
2013-01-21 18:42:00,44.5,37.4,30.10,SSE,163,0.0,0.0,76,0.00,,---,0.00,VWS V14.01,2013-01-22 02:42:00,
2013-01-21 18:47:00,44.3,36.9,30.10,SSE,163,0.0,0.0,75,0.00,,---,0.00,VWS V14.01,2013-01-22 02:47:00,
2013-01-21 18:52:00,44.0,36.6,30.10,SSE,163,0.0,0.0,75,0.00,,---,0.00,VWS V14.01,2013-01-22 02:52:00,
2013-01-21 18:57:00,43.7,36.6,30.10,SSE,163,0.0,0.0,76,0.00,,---,0.00,VWS V14.01,2013-01-22 02:57:00,
2013-01-21 19:02:00,43.5,36.5,30.10,SSE,163,0.0,0.0,76,0.00,,---,0.00,VWS V14.01,2013-01-22 03:02:00,
2013-01-21 19:07:00,43.3,36.6,30.11,SSE,163,0.0,0.0,77,0.00,,---,0.00,VWS V14.01,2013-01-22 03:07:00,
2013-01-21 19:12:00,43.0,36.3,30.11,SSE,163,0.0,0.0,77,0.00,,---,0.00,VWS V14.01,2013-01-22 03:12:00,
2013-01-21 19:17:00,42.9,36.2,30.11,SSE,163,0.0,0.0,77,0.00,,---,0.00,VWS V14.01,2013-01-22 03:17:00,
2013-01-21 19:22:00,42.7,36.3,30.11,SSE,163,0.0,0.0,78,0.00,,---,0.00,VWS V14.01,2013-01-22 03:22:00,
2013-01-21 19:27:00,42.5,36.1,30.11,SSE,163,0.0,0.0,78,0.00,,---,0.00,VWS V14.01,2013-01-22 03:27:00,
2013-01-21 19:32:00,42.3,35.9,30.11,SSE,163,0.0,0.0,78,0.00,,---,0.00,VWS V14.01,2013-01-22 03:32:00,
2013-01-21 19:37:00,42.2,35.8,30.11,SSE,163,0.0,0.0,78,0.00,,---,0.00,VWS V14.01,2013-01-22 03:37:00,
2013-01-21 19:42:00,42.1,35.8,30.11,SSE,163,0.0,0.0,78,0.00,,---,0.00,VWS V14.01,2013-01-22 03:42:00,
2013-01-21 19:47:00,42.0,35.7,30.11,SSE,163,0.0,0.0,78,0.00,,---,0.00,VWS V14.01,2013-01-22 03:47:00,
2013-01-21 19:52:00,41.8,35.5,30.11,SSE,163,0.0,0.0,78,0.00,,---,0.00,VWS V14.01,2013-01-22 03:52:00,
2013-01-21 19:57:00,41.6,35.3,30.11,SSE,163,0.0,0.0,78,0.00,,---,0.00,VWS V14.01,2013-01-22 03:57:00,
2013-01-21 20:02:00,41.4,35.4,30.11,SSE,163,0.0,0.0,79,0.00,,---,0.00,VWS V14.01,2013-01-22 04:02:00,
2013-01-21 20:07:00,41.1,35.1,30.11,SSE,163,0.0,0.0,79,0.00,,---,0.00,VWS V14.01,2013-01-22 04:07:00,
2013-01-21 20:12:00,41.0,35.3,30.11,SSE,163,0.0,0.0,80,0.00,,---,0.00,VWS V14.01,2013-01-22 04:12:00,
2013-01-21 20:17:00,40.7,35.0,30.11,SSE,163,0.0,0.0,80,0.00,,---,0.00,VWS V14.01,2013-01-22 04:17:00,
2013-01-21 20:22:00,40.6,35.2,30.12,SSE,163,0.0,0.0,81,0.00,,---,0.00,VWS V14.01,2013-01-22 04:22:00,
2013-01-21 20:27:00,40.4,35.0,30.12,SSE,163,0.0,0.0,81,0.00,,---,0.00,VWS V14.01,2013-01-22 04:27:00,
2013-01-21 20:32:00,40.3,34.9,30.12,SSE,163,0.0,0.0,81,0.00,,---,0.00,VWS V14.01,2013-01-22 04:32:00,
2013-01-21 20:37:00,40.2,34.8,30.12,SSE,163,0.0,0.0,81,0.00,,---,0.00,VWS V14.01,2013-01-22 04:37:00,
2013-01-21 20:42:00,40.1,35.1,30.12,SSE,163,0.0,0.0,82,0.00,,---,0.00,VWS V14.01,2013-01-22 04:42:00,
2013-01-21 20:47:00,39.9,34.9,30.12,SSE,163,0.0,0.0,82,0.00,,---,0.00,VWS V14.01,2013-01-22 04:47:00,
2013-01-21 20:52:00,39.8,34.8,30.12,SSE,163,0.0,0.0,82,0.00,,---,0.00,VWS V14.01,2013-01-22 04:52:00,
2013-01-21 20:57:00,39.7,34.7,30.12,SSE,163,0.0,0.0,82,0.00,,---,0.00,VWS V14.01,2013-01-22 04:57:00,
2013-01-21 21:00:00,39.5,34.5,30.12,SSE,163,0.0,0.0,82,0.00,,---,0.00,VWS V14.01,2013-01-22 05:00:00,
2013-01-21 21:01:00,39.5,34.5,30.12,SSE,163,0.0,0.0,82,0.00,,---,0.00,VWS V14.01,2013-01-22 05:01:00,
2013-01-21 21:06:00,39.3,34.6,30.13,SSE,163,0.0,0.0,83,0.00,,---,0.00,VWS V14.01,2013-01-22 05:06:00,
2013-01-21 21:11:00,39.3,34.6,30.13,SSE,163,0.0,0.0,83,0.00,,---,0.00,VWS V14.01,2013-01-22 05:11:00,
2013-01-21 21:16:00,39.2,34.8,30.13,SSE,163,0.0,0.0,84,0.00,,---,0.00,VWS V14.01,2013-01-22 05:16:00,
2013-01-21 21:21:00,39.2,34.8,30.12,SSE,163,0.0,0.0,84,0.00,,---,0.00,VWS V14.01,2013-01-22 05:21:00,
2013-01-21 21:26:00,39.2,34.8,30.13,SSE,163,0.0,0.0,84,0.00,,---,0.00,VWS V14.01,2013-01-22 05:26:00,
2013-01-21 21:31:00,39.1,34.7,30.13,SSE,163,0.0,0.0,84,0.00,,---,0.00,VWS V14.01,2013-01-22 05:31:00,
2013-01-21 21:36:00,38.9,34.5,30.13,SSE,163,0.0,0.0,84,0.00,,---,0.00,VWS V14.01,2013-01-22 05:36:00,
2013-01-21 21:41:00,38.8,34.4,30.13,SSE,163,0.0,0.0,84,0.00,,---,0.00,VWS V14.01,2013-01-22 05:41:00,
2013-01-21 21:46:00,38.7,34.3,30.13,SSE,163,0.0,0.0,84,0.00,,---,0.00,VWS V14.01,2013-01-22 05:46:00,
2013-01-21 21:51:00,38.4,34.0,30.13,SSE,163,0.0,0.0,84,0.00,,---,0.00,VWS V14.01,2013-01-22 05:51:00,
2013-01-21 21:56:00,38.2,33.8,30.13,SSE,163,0.0,0.0,84,0.00,,---,0.00,VWS V14.01,2013-01-22 05:56:00,
2013-01-21 22:01:00,37.9,33.5,30.13,SSE,163,0.0,0.0,84,0.00,,---,0.00,VWS V14.01,2013-01-22 06:01:00,
2013-01-21 22:06:00,37.7,33.3,30.13,SSE,163,0.0,0.0,84,0.00,,---,0.00,VWS V14.01,2013-01-22 06:06:00,
2013-01-21 22:11:00,37.4,33.3,30.13,SSE,163,0.0,0.0,85,0.00,,---,0.00,VWS V14.01,2013-01-22 06:11:00,
2013-01-21 22:16:00,37.2,33.1,30.13,SSE,163,0.0,0.0,85,0.00,,---,0.00,VWS V14.01,2013-01-22 06:16:00,
2013-01-21 22:21:00,37.0,32.9,30.13,SSE,163,0.0,0.0,85,0.00,,---,0.00,VWS V14.01,2013-01-22 06:21:00,
2013-01-21 22:26:00,36.8,32.7,30.14,SSE,163,0.0,0.0,85,0.00,,---,0.00,VWS V14.01,2013-01-22 06:26:00,
2013-01-21 22:31:00,36.6,32.5,30.13,SSE,163,0.0,0.0,85,0.00,,---,0.00,VWS V14.01,2013-01-22 06:31:00,
2013-01-21 22:36:00,36.5,32.4,30.13,SSE,163,0.0,0.0,85,0.00,,---,0.00,VWS V14.01,2013-01-22 06:36:00,
2013-01-21 22:41:00,36.3,32.5,30.14,SSE,163,0.0,0.0,86,0.00,,---,0.00,VWS V14.01,2013-01-22 06:41:00,
2013-01-21 22:46:00,36.2,32.4,30.14,SSE,163,0.0,0.0,86,0.00,,---,0.00,VWS V14.01,2013-01-22 06:46:00,
2013-01-21 22:51:00,36.1,32.3,30.14,SSE,163,0.0,0.0,86,0.00,,---,0.00,VWS V14.01,2013-01-22 06:51:00,
2013-01-21 22:56:00,36.0,32.2,30.14,SSE,163,0.0,0.0,86,0.00,,---,0.00,VWS V14.01,2013-01-22 06:56:00,
2013-01-21 23:01:00,35.9,32.1,30.14,SSE,163,0.0,0.0,86,0.00,,---,0.00,VWS V14.01,2013-01-22 07:01:00,
2013-01-21 23:06:00,35.8,32.0,30.14,SSE,163,0.0,0.0,86,0.00,,---,0.00,VWS V14.01,2013-01-22 07:06:00,
2013-01-21 23:11:00,35.7,31.9,30.14,SSE,163,0.0,0.0,86,0.00,,---,0.00,VWS V14.01,2013-01-22 07:11:00,
2013-01-21 23:16:00,35.5,31.7,30.14,SSE,163,0.0,0.0,86,0.00,,---,0.00,VWS V14.01,2013-01-22 07:16:00,
2013-01-21 23:21:00,35.3,31.5,30.13,SSE,163,0.0,0.0,86,0.00,,---,0.00,VWS V14.01,2013-01-22 07:21:00,
2013-01-21 23:26:00,35.1,31.3,30.13,SSE,163,0.0,0.0,86,0.00,,---,0.00,VWS V14.01,2013-01-22 07:26:00,
2013-01-21 23:31:00,34.9,31.1,30.13,SSE,163,0.0,0.0,86,0.00,,---,0.00,VWS V14.01,2013-01-22 07:31:00,
2013-01-21 23:36:00,34.7,31.0,30.12,SSE,163,0.0,0.0,86,0.00,,---,0.00,VWS V14.01,2013-01-22 07:36:00,
2013-01-21 23:41:00,34.4,32.3,30.12,SSE,163,0.0,0.0,92,0.00,,---,0.00,VWS V14.01,2013-01-22 07:41:00,
2013-01-21 23:46:00,34.4,30.6,30.12,SSE,163,0.0,0.0,86,0.00,,---,0.00,VWS V14.01,2013-01-22 07:46:00,
2013-01-21 23:51:00,34.4,30.6,30.12,SSE,163,0.0,0.0,86,0.00,,---,0.00,VWS V14.01,2013-01-22 07:51:00,
2013-01-21 23:56:00,34.4,30.9,30.12,SSE,163,0.0,0.0,87,0.00,,---,0.00,VWS V14.01,2013-01-22 07:56:00,